�������l�o���
Date,Time,MP-1(��Sv/h),MP-2(��Sv/h),MP-3(��Sv/h),MP-4(��Sv/h),MP-5(��Sv/h),MP-6(��Sv/h),MP-7(��Sv/h),MP-8(��Sv/h),����,����(m/s),���J
2017/08/27,00:00,0.934,1.472,0.980,1.774,1.215,0.516,0.945,0.871,�k,4.0,��
2017/08/27,00:10,0.934,1.472,0.979,1.773,1.213,0.516,0.944,0.870,�k,3.7,��
2017/08/27,00:20,0.933,1.472,0.977,1.775,1.214,0.518,0.944,0.870,�k�k��,4.7,��
2017/08/27,00:30,0.933,1.473,0.980,1.775,1.215,0.515,0.944,0.871,�k,4.6,��
2017/08/27,00:40,0.933,1.471,0.979,1.774,1.214,0.516,0.946,0.871,�k�k��,4.7,��
2017/08/27,00:50,0.935,1.474,0.981,1.771,1.213,0.517,0.943,0.872,�k,5.2,��
2017/08/27,01:00,0.934,1.472,0.978,1.774,1.214,0.518,0.943,0.871,�k�k��,5.5,��
2017/08/27,01:10,0.934,1.472,0.979,1.774,1.214,0.517,0.943,0.871,�k�k��,5.3,��
2017/08/27,01:20,0.934,1.473,0.981,1.774,1.215,0.516,0.943,0.871,�k�k��,4.7,��
2017/08/27,01:30,0.936,1.474,0.979,1.772,1.214,0.516,0.944,0.870,�k,4.4,��
2017/08/27,01:40,0.934,1.471,0.978,1.772,1.216,0.517,0.943,0.871,�k,4.3,��
2017/08/27,01:50,0.935,1.472,0.978,1.773,1.215,0.516,0.944,0.870,�k,4.0,��
2017/08/27,02:00,0.933,1.473,0.980,1.773,1.215,0.516,0.943,0.870,�k,4.4,��
2017/08/27,02:10,0.934,1.473,0.978,1.773,1.216,0.516,0.944,0.871,�k�k��,4.4,��
2017/08/27,02:20,0.934,1.473,0.978,1.771,1.213,0.516,0.943,0.871,�k,3.9,��
2017/08/27,02:30,0.934,1.473,0.980,1.774,1.215,0.514,0.942,0.870,�k�k��,4.5,��
2017/08/27,02:40,0.934,1.472,0.980,1.775,1.215,0.517,0.945,0.867,�k,4.4,��
2017/08/27,02:50,0.933,1.473,0.978,1.774,1.214,0.516,0.943,0.871,�k�k��,3.3,��
2017/08/27,03:00,0.935,1.472,0.979,1.774,1.213,0.515,0.945,0.869,�k�k��,3.2,��
2017/08/27,03:10,0.934,1.475,0.978,1.775,1.214,0.516,0.942,0.872,�k,1.4,��
2017/08/27,03:20,0.933,1.473,0.978,1.776,1.214,0.515,0.944,0.870,�k�k��,2.3,��
2017/08/27,03:30,0.935,1.478,0.978,1.774,1.214,0.515,0.943,0.871,�k�k��,1.1,��
2017/08/27,03:40,0.932,1.472,0.978,1.774,1.215,0.517,0.941,0.872,�k�k��,1.4,��
2017/08/27,03:50,0.933,1.473,0.977,1.774,1.215,0.517,0.944,0.871,�k��,1.1,��
2017/08/27,04:00,0.935,1.474,0.979,1.773,1.214,0.516,0.942,0.870,��,0.6,��
2017/08/27,04:10,0.933,1.474,0.980,1.772,1.213,0.515,0.943,0.871,-,CALM,��
2017/08/27,04:20,0.936,1.473,0.978,1.775,1.216,0.515,0.944,0.870,-,CALM,��
2017/08/27,04:30,0.935,1.476,0.978,1.774,1.215,0.516,0.942,0.871,-,CALM,��
2017/08/27,04:40,0.935,1.472,0.977,1.772,1.214,0.516,0.943,0.869,��,0.6,��
2017/08/27,04:50,0.935,1.474,0.978,1.775,1.217,0.516,0.943,0.872,��쓌,0.9,��
2017/08/27,05:00,0.933,1.474,0.979,1.772,1.213,0.515,0.944,0.871,�쓌,0.9,��
2017/08/27,05:10,0.932,1.470,0.979,1.772,1.217,0.517,0.945,0.870,�쓌,0.6,��
2017/08/27,05:20,0.936,1.474,0.977,1.776,1.215,0.515,0.942,0.871,�쓌,0.9,��
2017/08/27,05:30,0.933,1.474,0.978,1.774,1.215,0.515,0.943,0.872,��쓌,0.9,��
2017/08/27,05:40,0.934,1.477,0.979,1.775,1.214,0.516,0.942,0.871,�쓌,1.2,��
2017/08/27,05:50,0.932,1.473,0.977,1.774,1.216,0.516,0.943,0.870,-,CALM,��
2017/08/27,06:00,0.932,1.472,0.976,1.774,1.213,0.515,0.944,0.870,-,CALM,��
2017/08/27,06:10,0.933,1.475,0.974,1.774,1.214,0.515,0.943,0.871,�k��,0.6,��
2017/08/27,06:20,0.933,1.475,0.977,1.772,1.216,0.514,0.944,0.868,�k�k��,1.2,��
2017/08/27,06:30,0.933,1.475,0.979,1.774,1.214,0.514,0.945,0.873,�k��,0.6,��
2017/08/27,06:40,0.934,1.475,0.978,1.773,1.214,0.516,0.942,0.870,�k,1.5,��
2017/08/27,06:50,0.930,1.476,0.979,1.772,1.214,0.515,0.943,0.871,�k,0.9,��
2017/08/27,07:00,0.934,1.476,0.979,1.775,1.213,0.515,0.943,0.870,�k,1.1,��
2017/08/27,07:10,0.936,1.476,0.979,1.775,1.214,0.516,0.944,0.872,�k�k��,1.7,��
2017/08/27,07:20,0.933,1.476,0.980,1.776,1.216,0.516,0.942,0.870,�k��,1.7,��
2017/08/27,07:30,0.933,1.473,0.977,1.776,1.213,0.516,0.944,0.873,���k��,2.0,��
2017/08/27,07:40,0.935,1.477,0.976,1.774,1.215,0.515,0.945,0.872,���k��,1.5,��
2017/08/27,07:50,0.935,1.474,0.978,1.774,1.215,0.515,0.944,0.872,���k��,1.4,��
2017/08/27,08:00,0.934,1.477,0.979,1.776,1.215,0.515,0.943,0.872,��,1.4,��
2017/08/27,08:10,0.936,1.476,0.980,1.780,1.217,0.515,0.945,0.870,�k��,1.5,��
2017/08/27,08:20,0.934,1.477,0.977,1.776,1.216,0.512,0.944,0.871,���k��,1.5,��
2017/08/27,08:30,0.933,1.475,0.978,1.774,1.215,0.514,0.945,0.869,��,1.7,��
2017/08/27,08:40,0.932,1.474,0.977,1.778,1.215,0.513,0.941,0.867,��,2.0,��
2017/08/27,08:50,0.932,1.475,0.980,1.774,1.214,0.515,0.944,0.868,���k��,2.0,��
2017/08/27,09:00,0.933,1.475,0.977,1.777,1.217,0.515,0.944,0.867,���k��,1.5,��
2017/08/27,09:10,0.933,1.475,0.978,1.776,1.217,0.515,0.943,0.869,���k��,1.4,��
2017/08/27,09:20,0.934,1.477,0.976,1.776,1.214,0.513,0.943,0.868,���쓌,1.7,��
2017/08/27,09:30,0.937,1.475,0.980,1.775,1.216,0.513,0.943,0.869,���k��,1.5,��
2017/08/27,09:40,0.934,1.479,0.980,1.777,1.217,0.516,0.942,0.869,�k��,1.7,��
2017/08/27,09:50,0.934,1.479,0.979,1.775,1.219,0.515,0.943,0.867,���k��,2.0,��
2017/08/27,10:00,0.935,1.477,0.979,1.778,1.216,0.515,0.943,0.869,���k��,1.7,��
2017/08/27,10:10,0.937,1.481,0.978,1.779,1.221,0.515,0.945,0.869,���쓌,1.9,��
2017/08/27,10:20,0.936,1.478,0.981,1.778,1.220,0.515,0.942,0.870,���쓌,2.3,��
2017/08/27,10:30,0.933,1.480,0.979,1.776,1.219,0.514,0.942,0.869,��,2.6,��
2017/08/27,10:40,0.933,1.482,0.980,1.778,1.217,0.514,0.946,0.869,��,1.9,��
2017/08/27,10:50,0.936,1.482,0.982,1.776,1.216,0.515,0.945,0.869,���쓌,2.9,��
2017/08/27,11:00,0.938,1.482,0.981,1.773,1.218,0.516,0.944,0.868,���쓌,2.6,��
2017/08/27,11:10,0.937,1.482,0.980,1.776,1.219,0.514,0.944,0.868,��,3.1,��
2017/08/27,11:20,0.939,1.483,0.980,1.776,1.220,0.515,0.946,0.870,��,3.1,��
2017/08/27,11:30,0.939,1.482,0.982,1.777,1.220,0.514,0.945,0.870,��,2.6,��
2017/08/27,11:40,0.940,1.483,0.983,1.776,1.222,0.515,0.947,0.869,��,3.2,��
2017/08/27,11:50,0.939,1.485,0.981,1.777,1.223,0.516,0.943,0.868,��,2.5,��
2017/08/27,12:00,0.939,1.484,0.983,1.780,1.224,0.516,0.944,0.871,���쓌,2.9,��
2017/08/27,12:10,0.941,1.487,0.983,1.780,1.224,0.517,0.945,0.872,���쓌,2.3,��
2017/08/27,12:20,0.940,1.483,0.984,1.781,1.225,0.516,0.944,0.871,���쓌,2.3,��
2017/08/27,12:30,0.942,1.487,0.984,1.782,1.226,0.518,0.946,0.870,�쓌,3.1,��
2017/08/27,12:40,0.943,1.488,0.983,1.781,1.225,0.516,0.945,0.871,�쓌,2.6,��
2017/08/27,12:50,0.941,1.491,0.985,1.780,1.227,0.516,0.948,0.870,�쓌,3.4,��
2017/08/27,13:00,0.943,1.490,0.984,1.784,1.226,0.517,0.945,0.870,���쓌,2.3,��
2017/08/27,13:10,0.943,1.492,0.985,1.780,1.227,0.516,0.944,0.870,���쓌,4.0,��
2017/08/27,13:20,0.943,1.490,0.987,1.780,1.228,0.517,0.947,0.871,���쓌,2.8,��
2017/08/27,13:30,0.944,1.489,0.985,1.781,1.228,0.519,0.943,0.870,���쓌,3.3,��
2017/08/27,13:40,0.942,1.489,0.986,1.782,1.229,0.518,0.946,0.871,��,3.0,��
2017/08/27,13:50,0.943,1.495,0.986,1.783,1.227,0.519,0.945,0.871,��,2.6,��
2017/08/27,14:00,0.945,1.492,0.986,1.780,1.230,0.519,0.945,0.870,�쓌,2.6,��
2017/08/27,14:10,0.943,1.491,0.988,1.782,1.227,0.519,0.945,0.871,�쓌,2.6,��
2017/08/27,14:20,0.945,1.492,0.987,1.781,1.229,0.518,0.947,0.870,��쓌,3.8,��
2017/08/27,14:30,0.945,1.494,0.988,1.782,1.228,0.517,0.946,0.871,��쓌,3.8,��
2017/08/27,14:40,0.946,1.494,0.987,1.785,1.230,0.518,0.948,0.872,��쓌,3.2,��
2017/08/27,14:50,0.943,1.492,0.988,1.784,1.231,0.518,0.947,0.869,��쓌,3.9,��
2017/08/27,15:00,0.946,1.494,0.986,1.784,1.231,0.518,0.946,0.873,��쓌,3.9,��
2017/08/27,15:10,0.944,1.494,0.989,1.787,1.229,0.519,0.947,0.869,��쓌,4.7,��
2017/08/27,15:20,0.946,1.498,0.987,1.781,1.232,0.519,0.947,0.872,��쓌,3.7,��
2017/08/27,15:30,0.946,1.493,0.989,1.784,1.233,0.520,0.947,0.871,��쓌,4.5,��
2017/08/27,15:40,0.947,1.492,0.990,1.785,1.234,0.519,0.947,0.872,��쓌,4.4,��
2017/08/27,15:50,0.946,1.495,0.989,1.785,1.235,0.519,0.947,0.872,��쓌,4.4,��
2017/08/27,16:00,0.947,1.494,0.990,1.787,1.233,0.520,0.944,0.872,��쓌,5.3,��
2017/08/27,16:10,0.945,1.496,0.989,1.785,1.238,0.520,0.946,0.871,��쓌,4.6,��
2017/08/27,16:20,0.947,1.497,0.988,1.786,1.233,0.519,0.947,0.871,��쓌,4.8,��
2017/08/27,16:30,0.947,1.496,0.990,1.789,1.235,0.520,0.945,0.872,��쓌,5.5,��
2017/08/27,16:40,0.947,1.498,0.990,1.786,1.235,0.520,0.945,0.871,��쓌,5.1,��
2017/08/27,16:50,0.949,1.500,0.989,1.788,1.237,0.520,0.946,0.871,��쓌,4.9,��
2017/08/27,17:00,0.949,1.500,0.990,1.787,1.238,0.520,0.946,0.871,��,4.8,��
2017/08/27,17:10,0.949,1.497,0.989,1.784,1.236,0.521,0.946,0.872,��쓌,4.9,��
2017/08/27,17:20,0.947,1.497,0.990,1.787,1.237,0.522,0.946,0.872,��,6.0,��
2017/08/27,17:30,0.949,1.498,0.990,1.789,1.238,0.522,0.947,0.874,��,5.9,��
2017/08/27,17:40,0.948,1.500,0.993,1.788,1.239,0.523,0.947,0.873,��,7.0,��
2017/08/27,17:50,0.946,1.499,0.991,1.788,1.236,0.519,0.945,0.874,��,6.4,��
2017/08/27,18:00,0.946,1.499,0.990,1.787,1.236,0.522,0.948,0.873,��,6.5,��
2017/08/27,18:10,0.947,1.500,0.991,1.788,1.236,0.521,0.945,0.873,��,5.7,��
2017/08/27,18:20,0.948,1.501,0.993,1.785,1.234,0.521,0.946,0.873,��,5.4,��
2017/08/27,18:30,0.947,1.501,0.991,1.788,1.236,0.520,0.948,0.873,��,5.7,��
2017/08/27,18:40,0.946,1.501,0.992,1.787,1.236,0.521,0.947,0.872,��,5.7,��
2017/08/27,18:50,0.950,1.503,0.992,1.787,1.236,0.521,0.946,0.875,��,5.5,��
2017/08/27,19:00,0.949,1.500,0.993,1.789,1.237,0.521,0.947,0.872,��,4.4,��
2017/08/27,19:10,0.948,1.502,0.993,1.791,1.236,0.519,0.949,0.873,��,4.4,��
2017/08/27,19:20,0.950,1.502,0.990,1.792,1.237,0.519,0.947,0.873,��,4.7,��
2017/08/27,19:30,0.948,1.500,0.995,1.790,1.237,0.520,0.947,0.874,��,4.7,��
2017/08/27,19:40,0.947,1.500,0.991,1.792,1.235,0.517,0.948,0.872,��,4.3,��
2017/08/27,19:50,0.950,1.499,0.991,1.789,1.236,0.521,0.948,0.873,��,4.1,��
2017/08/27,20:00,0.948,1.500,0.993,1.789,1.234,0.520,0.948,0.873,��,4.6,��
2017/08/27,20:10,0.950,1.502,0.991,1.792,1.233,0.519,0.946,0.874,��,4.3,��
2017/08/27,20:20,0.949,1.499,0.991,1.789,1.234,0.519,0.949,0.873,��,4.5,��
2017/08/27,20:30,0.948,1.499,0.992,1.790,1.237,0.519,0.948,0.872,��,4.9,��
2017/08/27,20:40,0.950,1.500,0.989,1.789,1.235,0.521,0.945,0.874,��,5.0,��
2017/08/27,20:50,0.950,1.500,0.994,1.789,1.235,0.519,0.947,0.872,��,5.1,��
2017/08/27,21:00,0.949,1.501,0.994,1.790,1.237,0.520,0.947,0.871,��,4.9,��
2017/08/27,21:10,0.948,1.500,0.989,1.790,1.237,0.519,0.947,0.872,��,5.0,��
2017/08/27,21:20,0.947,1.502,0.991,1.793,1.233,0.518,0.946,0.873,��,4.2,��
2017/08/27,21:30,0.949,1.498,0.991,1.789,1.237,0.521,0.946,0.874,��,4.1,��
2017/08/27,21:40,0.947,1.500,0.991,1.787,1.234,0.519,0.946,0.871,��,4.1,��
2017/08/27,21:50,0.948,1.497,0.992,1.789,1.237,0.520,0.947,0.874,��,4.0,��
2017/08/27,22:00,0.947,1.500,0.993,1.792,1.234,0.519,0.947,0.873,��,4.3,��
2017/08/27,22:10,0.948,1.501,0.991,1.789,1.235,0.517,0.948,0.873,��,4.0,��
2017/08/27,22:20,0.948,1.501,0.992,1.790,1.235,0.519,0.947,0.873,��,3.9,��
2017/08/27,22:30,0.945,1.501,0.990,1.789,1.236,0.520,0.947,0.874,��,3.9,��
2017/08/27,22:40,0.947,1.501,0.993,1.789,1.237,0.519,0.946,0.874,��,4.0,��
2017/08/27,22:50,0.950,1.500,0.992,1.791,1.237,0.519,0.947,0.874,��,4.0,��
2017/08/27,23:00,0.946,1.499,0.988,1.790,1.235,0.517,0.947,0.872,��,3.7,��
2017/08/27,23:10,0.948,1.499,0.988,1.790,1.236,0.518,0.947,0.874,��,3.7,��
2017/08/27,23:20,0.947,1.500,0.991,1.789,1.236,0.518,0.946,0.875,��,3.8,��
2017/08/27,23:30,0.950,1.500,0.991,1.790,1.234,0.518,0.947,0.874,��,3.4,��
2017/08/27,23:40,0.945,1.500,0.991,1.789,1.234,0.521,0.948,0.873,��,3.7,��
2017/08/27,23:50,0.946,1.499,0.993,1.787,1.234,0.518,0.947,0.873,��,4.3,��
